[[{"header":{"parameterUnit":"m.s-1","parameterCategory":1,"la1":30.2992,"la2":30.254,"lo1":-89.0895,"lo2":-89.0443,"dy":0.0025,"dx":0.0025,"nx":19,"ny":19,"refTime":"2026-05-18T03:00:00:Z","depth":0,"parameterNumber":2,"parameterNumberName":"U-component_of_WINDS"},"data":[0,0,0,-3.7984,-3.7986,-3.8049,-3.8049,-3.816,-3.8161,0,0,0,0,0,0,0,0,0,0,0,-3.7982,-3.7983,-3.7984,-3.7986,-3.8049,-3.8049,-3.816,-3.8161,0,0,0,0,0,0,0,0,0,0,0,-3.7981,-3.7983,-3.7984,-3.7987,-3.8049,-3.8049,-3.816,-3.8102,0,0,0,0,0,0,0,0,0,0,-3.8036,-3.8048,-3.7982,-3.7984,-3.7987,-3.8049,-3.8049,-3.8099,-3.8105,-3.8144,0,-3.818,0,-3.8173,-3.817,-3.8171,0,0,0,-3.7975,-3.8042,-3.8045,-3.7984,-3.7988,-3.8049,-3.8017,-3.8102,-3.811,-3.8153,-3.8181,-3.8185,-3.8175,-3.8171,-3.8172,-3.8428,-3.843,0,0,-3.7971,-3.8002,-3.804,-3.8051,-3.804,-3.8016,-3.802,-3.8106,-3.814,-3.8182,-3.8187,-3.8176,-3.8172,-3.8173,-3.8426,-3.8428,0,0,0,-3.7969,-3.8,-3.8,-3.8047,-3.8056,-3.8018,-3.8022,-3.8136,-3.8133,-3.8188,-3.8178,-3.8173,-3.8175,-3.8424,-3.8427,-3.8541,0,0,0,-3.7966,-3.7998,-3.7999,-3.8018,-3.8055,-3.8096,-3.8051,-3.8127,-3.8136,-3.8177,-3.8173,-3.8176,-3.8422,-3.8426,-3.8534,-3.859,0,0,0,-3.7972,-3.7999,-3.8013,-3.802,-3.8048,-3.8094,-3.8096,-3.8128,-3.8131,-3.8171,-3.8176,-3.8421,-3.8425,-3.8527,-3.8579,-3.8666,0,0,0,-3.7987,-3.8114,-3.8016,-3.8154,-3.8047,-3.8164,-3.8095,-3.8181,-3.8229,-3.8174,-3.8423,-3.8427,-3.8525,-3.8573,-3.866,-3.8744,-3.8783,0,0,-3.8165,-3.8137,-3.8216,-3.8129,-3.8271,-3.8152,-3.8312,-3.8328,-3.8305,-3.8389,-3.8395,-3.8536,-3.8578,-3.8665,-3.8988,-3.9019,0,0,0,-3.8282,-3.834,-3.8371,-3.8418,-3.8433,-3.8451,-3.8439,-3.8446,-3.8515,-3.8353,-3.8591,-3.8615,-3.8665,-3.8704,-3.873,-3.8771,-3.8446,-3.8446,-3.8445,-3.8576,-3.8539,-3.8668,-3.864,-3.8687,-3.8675,-3.871,-3.8717,-3.8667,-3.8724,-3.8748,-3.8949,-3.8996,-3.9015,-3.9058,-3.8791,-3.8791,-3.8792,-3.8792,-3.8832,-3.8907,-3.8838,-3.8938,-3.89,-3.8985,-3.898,-3.8942,-3.9016,-3.8927,-3.8969,-3.8873,-3.905,-3.9085,-3.88,-3.8799,-3.8798,-3.8797,-3.8796,-3.9019,-3.9049,-3.9055,-3.912,-3.9176,-3.9144,-3.9219,-3.9182,-3.9148,-3.919,-3.9212,-3.921,-3.9203,-3.9203,-3.9204,-3.9205,-3.9205,-3.9206,-3.9206,-3.921,-3.9213,-3.928,-3.9309,-3.9335,-3.9366,-3.9358,-3.9383,-3.9403,-3.937,-3.937,-3.9315,-3.9074,-3.9013,-3.9217,-3.9215,-3.9213,-3.9212,-3.9212,-3.9481,-3.9415,-3.9518,-3.9544,-3.9576,-3.9635,-3.9588,-3.9645,-3.9661,-3.97,-3.9637,-3.9465,-3.9434,-3.9413,-3.9363,-3.9644,-3.9644,-3.9644,-3.9644,-3.9638,-3.962,-3.9717,-3.9763,-3.9804,-3.9772,-3.9893,-3.989,-3.9876,-3.9885,-3.9839,-3.977,-3.975,-3.9731,-3.9703,-3.9656,-4.0005,-4.0005,-4.0006,-3.9803,-3.9787,-3.9895,-3.9879,-3.9902,-3.9924,-4.0037,-4.0095,-4.0065,-4.002,-3.9891,-3.9876,-3.9763,-3.9729,-3.9678,-3.9635,-3.9547,0,0]},{"header":{"parameterUnit":"m.s-1","parameterCategory":1,"la1":30.2992,"la2":30.254,"lo1":-89.0895,"lo2":-89.0443,"dy":0.0025,"dx":0.0025,"nx":19,"ny":19,"refTime":"2026-05-18T03:00:00:Z","depth":0,"parameterNumber":3,"parameterNumberName":"V-component_of_WINDS"},"data":[0,0,0,1.7482,1.7483,1.7584,1.7585,1.7679,1.768,0,0,0,0,0,0,0,0,0,0,0,1.7432,1.7431,1.7482,1.7483,1.7584,1.7585,1.7679,1.768,0,0,0,0,0,0,0,0,0,0,0,1.7432,1.7431,1.7431,1.7484,1.7584,1.7585,1.7679,1.7615,0,0,0,0,0,0,0,0,0,0,1.7523,1.7457,1.7432,1.7431,1.7484,1.7584,1.7585,1.7613,1.7619,1.7619,0,1.7614,0,1.7648,1.7684,1.7684,0,0,0,1.7499,1.7452,1.7497,1.7431,1.7485,1.7584,1.7543,1.7617,1.7624,1.7628,1.7616,1.762,1.765,1.7685,1.7685,1.7635,1.7634,0,0,1.7493,1.7439,1.7492,1.7501,1.7484,1.754,1.7546,1.7622,1.7605,1.7616,1.7623,1.7651,1.7685,1.7685,1.7636,1.7635,0,0,0,1.7467,1.7434,1.7479,1.7496,1.7517,1.7542,1.7549,1.7602,1.7621,1.7625,1.7653,1.7685,1.7686,1.7637,1.7636,1.7536,0,0,0,1.7464,1.7419,1.7475,1.7443,1.7515,1.7561,1.7527,1.7616,1.7626,1.7652,1.7685,1.7687,1.7638,1.7637,1.7541,1.7497,0,0,0,1.7432,1.7416,1.7423,1.744,1.7481,1.7561,1.7585,1.7619,1.7642,1.7684,1.7687,1.7639,1.7637,1.7546,1.7505,1.7467,0,0,0,1.7382,1.7333,1.7421,1.7378,1.748,1.7499,1.7585,1.7601,1.7626,1.7686,1.7638,1.7636,1.7547,1.751,1.7472,1.7425,1.7401,0,0,1.729,1.732,1.7299,1.7381,1.7369,1.7488,1.7462,1.7536,1.759,1.7617,1.7616,1.7539,1.7505,1.7468,1.7286,1.7266,0,0,0,1.7252,1.7236,1.7245,1.7266,1.7321,1.7364,1.7448,1.7475,1.7501,1.7593,1.7518,1.75,1.748,1.746,1.7443,1.7429,1.7625,1.7625,1.7625,1.7044,1.7115,1.7085,1.7168,1.7187,1.7274,1.7295,1.7347,1.7414,1.7395,1.7402,1.7283,1.7258,1.7246,1.723,1.7385,1.7385,1.7384,1.7384,1.6915,1.6903,1.6994,1.6996,1.7072,1.7075,1.7156,1.7203,1.7216,1.7283,1.727,1.7335,1.7222,1.7212,1.7377,1.7378,1.7379,1.738,1.738,1.6786,1.6792,1.6827,1.6863,1.6884,1.697,1.6978,1.7048,1.7113,1.7099,1.7115,1.7116,1.7126,1.7102,1.7102,1.7101,1.7101,1.7101,1.71,1.6637,1.6679,1.6678,1.6732,1.6754,1.6791,1.6878,1.6901,1.6945,1.6994,1.6995,1.7062,1.7198,1.723,1.7094,1.7095,1.7096,1.7097,1.7097,1.6477,1.6525,1.6522,1.6544,1.6613,1.6628,1.6717,1.6758,1.6788,1.6789,1.686,1.695,1.6985,1.6999,1.7026,1.6846,1.6846,1.6846,1.6846,1.6367,1.6392,1.6405,1.6435,1.6473,1.6552,1.6546,1.6613,1.6689,1.6711,1.6748,1.679,1.6801,1.683,1.6847,1.6873,1.6658,1.6658,1.6658,1.6272,1.6304,1.6286,1.6361,1.642,1.6469,1.6465,1.6496,1.6592,1.6652,1.673,1.6738,1.6806,1.6825,1.6884,1.691,1.6959,0,0]}]]